[ hide orbit diagram ]
For accurate long-term ephemerides, please instead use our Horizons system.This orbit viewer was implemented using two-body methods, and hence should not be used for determining accurate long-term trajectories (over several years or decades) or planetary encounter circumstances.
Orbital Elements at Epoch 2459000.5 (2020-May-31.0) TDB
Reference: JPL 18 (heliocentric ecliptic J2000)
Element | Value | Uncertainty (1-sigma) | Units |
e | .119853689160673 | 3.3566e-08 | |
a | 2.74529378197505 | 1.6306e-08 | au |
q | 2.416260194375484 | 9.7596e-08 | au |
i | 8.519898511365659 | 4.9713e-06 | deg |
node | 326.9131903050259 | 2.4973e-05 | deg |
peri | 105.0293601631766 | 3.3674e-05 | deg |
M | 247.4875173262305 | 2.3619e-05 | deg |
tp | 2459519.754027253290 (2021-Nov-01.25402725) | 0.00011084 | TDB |
period | 1661.428539917594 4.55 | 1.4802e-05 4.053e-08 | d yr |
n | .2166810015300784 | 1.9305e-09 | deg/d |
Q | 3.074327369574616 | 1.826e-08 | au |
|
| | Orbit Determination Parameters
Additional Information
|
[ show covariance matrix ]
Physical Parameter Table
Parameter |
Symbol |
Value |
Units |
Sigma |
Reference |
Notes |
absolute magnitude |
H |
14.9 |
|
n/a |
MPO296677 |
|
|
78438 (2002 RR6) Discovered 2002-Sep-01 by NEAT at Haleakala |
Reference: 20040415/Numbers.arc | Last Updated: 2004-04-19 |
|
[ show close-approach data ]
|